This is the latest recevied weather packets stored in our database for station/object KC5TIL. If no packets are shown the sender has not sent any weather packets the latest 10 day(s).
| Time | Temp. | Humidity | Pressure | Rain* | Wind** | Luminosity | Snow |
|---|---|---|---|---|---|---|---|
| 1778101789 | 16.67° C | 73% | 1015.2 hPa | 0 mm | - | 198 W/m² | - |
| 1778101485 | 17.22° C | 72% | 1015.4 hPa | 0 mm | - | 234 W/m² | - |
| 1778101183 | 16.67° C | 73% | 1015.4 hPa | 0 mm | - | 214 W/m² | - |
| 1778100879 | 16.67° C | 73% | 1015.4 hPa | 0 mm | - | 240 W/m² | - |
| 1778100575 | 16.11° C | 74% | 1015.5 hPa | 0 mm | - | 204 W/m² | - |
| 1778100273 | 16.11° C | 74% | 1015.6 hPa | 0 mm | - | 155 W/m² | - |
| 1778099970 | 16.11° C | 75% | 1015.5 hPa | 0 mm | - | 117 W/m² | - |
| 1778099667 | 16.67° C | 73% | 1015.6 hPa | 0 mm | - | 170 W/m² | - |
| 1778099364 | 16.67° C | 73% | 1015.7 hPa | 0 mm | - | 182 W/m² | - |
| 1778099061 | 16.67° C | 72% | 1015.4 hPa | 0 mm | - | 388 W/m² | - |
| 1778098757 | 17.22° C | 72% | 1015.9 hPa | 0 mm | - | 535 W/m² | - |
| 1778098455 | 16.11° C | 73% | 1016.1 hPa | 0 mm | - | 524 W/m² | - |
| 1778098151 | 16.67° C | 73% | 1015.8 hPa | 0 mm | - | 462 W/m² | - |
| 1778097848 | 16.11° C | 75% | 1016.2 hPa | 0 mm | - | 357 W/m² | - |
| 1778097544 | 16.11° C | 75% | 1016.1 hPa | 0 mm | - | 436 W/m² | - |
| 1778097242 | 15.56° C | 75% | 1016.2 hPa | 0 mm | - | 567 W/m² | - |
| 1778096938 | 15.56° C | 76% | 1016.5 hPa | 0 mm | - | 327 W/m² | - |
| 1778096635 | 15.56° C | 76% | 1016.6 hPa | 0 mm | - | 405 W/m² | - |
| 1778096332 | 15.56° C | 77% | 1016.3 hPa | 0 mm | - | 460 W/m² | - |
| 1778096029 | 15° C | 78% | 1016.4 hPa | 0 mm | - | 344 W/m² | - |
| 1778095725 | 15° C | 77% | 1016.6 hPa | 0 mm | - | 239 W/m² | - |
| 1778095422 | 15° C | 78% | 1016.5 hPa | 0 mm | - | 260 W/m² | - |
| 1778095119 | 15° C | 79% | 1016.6 hPa | 0 mm | - | 234 W/m² | - |
| 1778094815 | 14.44° C | 80% | 1016.6 hPa | 0 mm | - | 236 W/m² | - |
| 1778094513 | 14.44° C | 80% | 1016.8 hPa | 0 mm | - | 203 W/m² | - |
* Rain latest hour (hover to see other rain measurements)
** Current wind speed in m/s (hover to see current wind gust speed)